COSMOS 1275 DEB, 17624

Orbit data source: Space-Track

COSMOS 1275 DEB, 17624 is space debris in LEO originally from a launch on Thu, 04 Jun 1981 UTC launched from the Plesetsk Missile And Space Complex (PKMTR). Debris objects in space refer to the collection of defunct objects orbiting the Earth. Examples of debris include non-operational satellites, rocket bodies, and fragments generated from explosions, collisions, or faulty payload assembly.

Loading next visibility...
Identifier
17624, 1981-053KT
Orbit
LEO
Country
Flag of CISCIS
Related business
Manufacturer
Unknown
Mission
Spacecraft
Bus & Motor
Unknown
Mass
Unknown
Launch date (UTC)
1981-06-04 (45 years ago)
Launch vehicle
Unknown
Launch site
Plesetsk Missile And Space Complex (PKMTR)
Object type
Payload
Rocket body
Debris
Shape & HBR
Unknown shape, 0.1 m
Radar Cross Section
Small (<0.1 m²)

Expand to show TLE details & history
Last TLE update: 18 hours ago

TLE from 18 hours ago
0 COSMOS 1275 DEB
1 17624U 81053KT  25350.15607347  .00004010  00000-0  10997-2 0  9998
2 17624  82.8411 230.7606 0014240  25.4639 132.3143 14.46876909 97490
Epoch: 2025-12-16T03:44Z
TLE epoch observation values (Epoch: 2025-12-16T03:44:44.747Z)
Latitude
21.93336°
Longitude
-93.35371°
Altitude
745.451 km
Speed
7.48 km/s
True Right ascension
03h 11m 30s
True Declination
21° 48' 51"
Sunlit
Object was in full shadow at epoch
Visualization orbit readout
Latitude
Unknown
Longitude
Unknown
Altitude
Unknown
Speed
Unknown
Apparent Right ascension
Unknown
Apparent Declination
Unknown
Sunlit
N/A
Visualization observer readout
Local Sidereal Time
20:23:31
Azimuth
Unknown
Elevation
Unknown
Doppler factor
Unknown
Orbital elements
Apogee altitude
743.047 km
Perigee altitude
722.795 km
Semi-major axis
7,111.058 km
Eccentricity
0.00142
Inclination
82.8411°
RAAN
230.7606°
Arg. of periapsis
25.4639°
True anomaly
132.43482°
Mean anomaly
132.3143°
Eccentric anomaly
132.37457°
Mean motion
3.61944 °/min
Orbital period
99.46 mins
BSTAR
0.0010997
Loading maneuver chart data...
Computing Atmospheric mass density...
Loading historical data...
Loading historical data...
Loading historical data...
Loading historical data...
Loading historical data...
Loading historical data...
Loading historical data...

Documentation

Showing up to 5 results
|